Location: Waldport
(44.4270°N, 124.0680°W)
Time: 22:43:41
(UTC-07:00)

OTV 5 (USA 277) - Visible Passes

Search period start: 22 October 2019 00:00
Search period end: 01 November 2019 00:00
Orbit: 310 x 324 km, 54.5° (Epoch: 17 October)

Date Brightness Start Highest point End Pass type
(mag) Time Alt. Az. Time Alt. Az. Time Alt. Az.
27 Oct ? 20:29:31 10° SW 20:29:33 10° SW 20:29:33 10° SW visible
28 Oct ? 19:10:42 10° S 19:12:42 18° SE 19:13:13 17° ESE visible
29 Oct ? 19:24:26 10° SW 19:27:05 48° SE 19:27:41 39° E visible
30 Oct ? 19:38:55 10° WSW 19:41:37 60° NW 19:42:01 51° N visible
31 Oct ? 19:53:51 10° W 19:56:16 27° NNW 19:56:16 27° NNW visible
